Location: A O Calhoun Middle School
(33.2198°N, 97.1397°W)
Time: 08:25:44
(UTC+00:00)

H-2A R/B - Pass Details

Date: 12 July 2022
Orbit: 577 x 651 km, 98.5° (Epoch: 07 August)

Event Time Altitude Azimuth Distance (km) Brightness Sun altitude
Rises 02:17:49 0° 21° (NNE) 2,968 5.7 -7.7°
Reaches altitude 10° 02:20:07 10° 28° (NNE) 2,058 4.8 -8.1°
Maximum altitude 02:24:24 43° 100° (E) 921 2.5 -8.8°
Drops below altitude 10° 02:28:39 10° 171° (S) 2,045 4.3 -9.6°
Sets 02:30:56 0° 178° (S) 2,947 5.2 -10.0°
